Millville, NJ

3:30 PM EDT on September 25, 2016 (GMT -0400)
Millville Municipal

Weather History for KMIV - March, 2013

Change the Weather History Date:

Friday, March 22, 2013

  Actual Average Record
Temperature  
Mean Temperature 35 °F -  
Max Temperature 44 °F 52 °F 77 °F (1968)
Min Temperature 27 °F 32 °F 13 °F (1988)
Degree Days  
Heating Degree Days 30    
Moisture  
Dew Point 17 °F    
Average Humidity 51    
Maximum Humidity 66    
Minimum Humidity 37    
Precipitation  
Precipitation 0.00 in - - ()
Sea Level Pressure  
Sea Level Pressure 29.88 in    
Wind  
Wind Speed 11 mph (WNW)    
Max Wind Speed 21 mph    
Max Gust Speed 32 mph    
Visibility 10 miles    
Events      
Averages and records for this station are not official NWS values.
T = Trace of Precipitation, MM = Missing Value Source: NWS Daily Summary

Daily Weather History Graph

Daily Weather History Graph

Search for Another Location

Airport or City:

Trip Planner

Search our weather history database for the weather conditions in past years. The results will help you decide how hot, cold, wet, or windy it might be!

Date:

Astronomy

Mar. 22, 2013 Rise Set
Actual Time 7:00 AM EDT 7:14 PM EDT
Civil Twilight 6:33 AM EDT 7:41 PM EDT
Nautical Twilight 6:02 AM EDT 8:12 PM EDT
Astronomical Twilight 5:30 AM EDT 8:44 PM EDT
Moon 2:40 PM EDT (3/22) 3:57 AM EDT (3/22)
Length of Visible Light 13h 07m
Length of Day
12h 14m
Waxing Gibbous, 77% of the Moon is Illuminated
Mar 22
Waxing Gibbous
Mar 27
Full
Apr 3
Last Quarter
Apr 10
New
Apr 18
First Quarter

Hourly Weather History & Observations

Time (EDT) Temp. Windchill Dew Point Humidity Pressure Visibility Wind Dir Wind Speed Gust Speed Precip Events Conditions
12:54 AM 28.0 °F 19.3 °F 12.0 °F 51% 29.83 in 10.0 mi WNW 9.2 mph - N/A   Clear
1:54 AM 28.0 °F 19.3 °F 12.9 °F 53% 29.83 in 10.0 mi West 9.2 mph - N/A   Clear
2:54 AM 27.0 °F 18.7 °F 14.0 °F 58% 29.83 in 10.0 mi West 8.1 mph - N/A   Clear
3:54 AM 27.0 °F 18.0 °F 15.1 °F 61% 29.83 in 10.0 mi West 9.2 mph - N/A   Clear
4:54 AM 27.0 °F 18.0 °F 16.0 °F 63% 29.83 in 10.0 mi West 9.2 mph - N/A   Clear
5:54 AM 28.0 °F 18.6 °F 17.1 °F 63% 29.84 in 10.0 mi West 10.4 mph - N/A   Clear
6:54 AM 27.0 °F 18.7 °F 17.1 °F 66% 29.86 in 10.0 mi West 8.1 mph - N/A   Clear
7:54 AM 30.0 °F 22.4 °F 18.0 °F 61% 29.88 in 10.0 mi West 8.1 mph - N/A   Clear
8:54 AM 34.0 °F 23.8 °F 18.0 °F 52% 29.89 in 10.0 mi WNW 16.1 mph 23.0 mph N/A   Clear
9:54 AM 36.0 °F 25.6 °F 19.0 °F 50% 29.90 in 10.0 mi West 18.4 mph 32.2 mph N/A   Scattered Clouds
10:54 AM 37.0 °F 26.4 °F 19.0 °F 48% 29.89 in 10.0 mi West 20.7 mph 27.6 mph N/A   Scattered Clouds
11:54 AM 39.9 °F 30.8 °F 17.1 °F 40% 29.88 in 10.0 mi NW 18.4 mph 26.5 mph N/A   Mostly Cloudy
12:54 PM 37.0 °F 28.5 °F 17.1 °F 44% 29.88 in 10.0 mi WNW 13.8 mph 25.3 mph N/A   Overcast
1:54 PM 39.0 °F 31.4 °F 17.1 °F 41% 29.87 in 10.0 mi WNW 12.7 mph 21.9 mph N/A   Overcast
2:54 PM 41.0 °F 33.5 °F 17.1 °F 38% 29.86 in 10.0 mi NW 13.8 mph 24.2 mph N/A   Overcast
3:54 PM 43.0 °F 35.7 °F 18.0 °F 37% 29.85 in 10.0 mi West 15.0 mph 24.2 mph N/A   Overcast
4:54 PM 42.1 °F 34.9 °F 17.1 °F 37% 29.86 in 10.0 mi West 13.8 mph 25.3 mph N/A   Overcast
5:54 PM 43.0 °F 36.0 °F 18.0 °F 37% 29.87 in 10.0 mi WNW 13.8 mph - N/A   Mostly Cloudy
6:54 PM 41.0 °F 36.4 °F 19.0 °F 41% 29.89 in 10.0 mi West 6.9 mph - N/A   Overcast
7:54 PM 39.0 °F 31.8 °F 19.0 °F 45% 29.92 in 10.0 mi West 11.5 mph - N/A   Partly Cloudy
8:54 PM 36.0 °F 29.6 °F 19.0 °F 50% 29.94 in 10.0 mi WNW 8.1 mph - N/A   Clear
9:54 PM 35.1 °F 29.3 °F 19.0 °F 52% 29.95 in 10.0 mi WNW 6.9 mph - N/A   Clear
10:54 PM 32.0 °F 26.4 °F 19.9 °F 61% 29.96 in 10.0 mi West 5.8 mph - N/A   Clear
11:54 PM 30.0 °F 25.2 °F 19.9 °F 66% 29.97 in 10.0 mi WNW 4.6 mph - N/A   Clear